Miscellaneous Local Product
Issued by NWS North Platte, NE

Home | Current Version | Previous Version | Text Only | Print | Product List | Glossary On
Versions: 1 2 3 4 5 6 7 8 9 10 11 12 13 14 15 16 17 18 19 20 21 22 23 24 25 26 27 28 29 30 31 32 33 34 35 36 37 38 39 40 41 42 43 44 45 46 47 48 49 50
000
AXUS43 KLBF 050710
MISLBF


WESTERN AND NORTH CENTRAL NEBRASKA HOURLY WEATHER ROUNDUP
NATIONAL WEATHER SERVICE NORTH PLATTE NE
200 AM CDT THU MAY 05 2016

NOTE: "FAIR" INDICATES FEW OR NO CLOUDS BELOW 12,000 FEET WITH NO
SIGNIFICANT WEATHER AND/OR OBSTRUCTIONS TO VISIBILITY.

NOTE: STATIONS NOT REPORTING VARIABLES SUCH AS SKY/WEATHER OR
PRESSURE ARE PROVIDED BY RAWS AND APRS NETWORKS AND ARE NOT UNDER
NATIONAL WEATHER SERVICE QUALITY CONTROL.

...OBSERVATIONS IN AND NEAR THE EASTERN PANHANDLE OF NEBRASKA...

CITY           SKY/WX    TMP DP  RH WIND       PRES   REMARKS
PINE RIDGE     CLEAR     54  39  57 CALM      30.04F
CHADRON        CLEAR     51  41  68 CALM      30.04S
ALLIANCE       CLEAR     46  42  86 S7        30.08S
SIDNEY         CLEAR     47  40  76 S8        30.13S
CRESCENT LAKE    N/A     52  42  70 SE5         N/A
BIG SPRINGS      N/A     57  42  57 S10         N/A
$$

...OBSERVATIONS IN NORTHERN NEBRASKA AND FAR SOUTHERN SOUTH DAKOTA...

CITY           SKY/WX    TMP DP  RH WIND       PRES   REMARKS
WINNER         FAIR      52  38  58 S8        30.04S
VALENTINE      CLEAR     48  38  68 SW3       30.07S
THEDFORD       CLEAR     48  38  69 CALM      30.10S
AINSWORTH      CLEAR     44  37  77 S6        30.08S
O`NEILL        CLEAR     49  45  88 CALM      30.07S
ORD            CLEAR     39  36  89 CALM      30.06F
BROKEN BOW     CLEAR     39  36  89 CALM      30.08S
VALENTINE NWR    N/A     48  40  75 CALM        N/A
BUTTE            N/A     55  39  54 SW3         N/A
HALSEY           N/A     51  34  53 S5          N/A
CHAMBERS         N/A     45  40  83 CALM        N/A
EWING            N/A     46  38  74 CALM        N/A
$$

...OBSERVATIONS IN SOUTHWEST NEBRASKA AND FAR NORTHEAST COLORADO...

CITY           SKY/WX    TMP DP  RH WIND       PRES   REMARKS
HOLYOKE        FAIR      46  41  81 W6        30.12F
IMPERIAL       CLEAR     51  42  71 SE5       30.11R
OGALLALA       CLEAR     56  38  50 SW5       30.09F
NORTH PLATTE   CLEAR     43  38  82 NE3       30.09R
MCCOOK         CLEAR     48  40  73 CALM      30.09S
LEXINGTON      CLEAR     44  40  85 CALM      30.09F
PAXTON           N/A     51  43  73 CALM        N/A
STAPLETON        N/A     47  38  71 CALM        N/A
GOTHENBURG       N/A     51  40  65 CALM        N/A
CALLAWAY         N/A     50  38  62 SE3         N/A
$$

...OBSERVATIONS IN CENTRAL LINCOLN COUNTY AREA...

CITY           SKY/WX    TMP DP  RH WIND       PRES   REMARKS
N.P. AIRPORT   CLEAR     43  38  82 NE3       30.09R
N.P. DOWNTOWN    N/A     50  44  80 CALM        N/A
N.P. SOUTHEAST   N/A     50  43  78 CALM        N/A
N.P. HILLCREST   N/A     54  40  59 CALM        N/A
$$

...SOME OBSERVATIONS FROM AROUND THE REGION...

CITY           SKY/WX    TMP DP  RH WIND       PRES   REMARKS
DENVER         PTCLDY    49  35  58 S16       30.15S
LARAMIE        CLOUDY    41  34  76 S8        30.22R
CHEYENNE       CLEAR     51  35  54 S7        30.18S
SCOTTSBLUFF    CLEAR     50  41  71 E9        30.09S
RAPID CITY     CLEAR     50  43  77 SE8       30.01F
BISMARCK       CLEAR     63  45  51 SW10      29.94F
PIERRE         PTCLDY    48  40  73 NE3       30.00F
SIOUX FALLS    CLEAR     44  36  73 CALM      30.02F
OMAHA          CLEAR     48  43  82 CALM      30.02S
GRAND ISLAND   CLEAR     47  36  65 CALM      30.07F
KANSAS CITY    CLEAR     52  39  61 NW6       30.01S
WICHITA        CLEAR     50  41  71 NW5       30.05S
OKLAHOMA CITY  CLEAR     59  40  49 N7        30.05S
DALLAS         CLEAR     66  51  58 N7        30.00S
AMARILLO       CLEAR     56  38  50 SE9       30.14F
DODGE CITY     CLEAR     49  41  74 SW5       30.11S
HAYS           CLEAR     46  37  71 NW5       30.09S
GOODLAND       CLEAR     55  42  61 S12       30.12S
$$




USA.gov is the U.S. government's official web portal to all federal, state and local government web resources and services.